[[{"header":{"parameterUnit":"m.s-1","parameterCategory":1,"la1":30.2991,"la2":30.254,"lo1":-89.0895,"lo2":-89.0444,"dy":0.0017,"dx":0.0017,"nx":28,"ny":28,"refTime":"2025-11-29T09:00:00:Z","depth":0,"parameterNumber":2,"parameterNumberName":"U-component_of_WINDS"},"data":[0,0,0,0,0,0,0,0,0,0,0,0,0,0,0,0,0,0,0,0,0,0,0,0,0,0,0,0,0,0,0,0,0,0,0,0,0,0,0,0,0,0,0,0,0,0,0,0,0,0,0,0,0,0,0,0,0,0,-5.6315,-5.6317,0,-5.6448,-5.645,-5.6451,-5.6473,-5.6471,-5.647,-5.6469,-5.6601,-5.6605,-5.661,0,0,0,0,0,0,0,0,0,0,0,0,0,-5.6075,-5.6079,-5.6315,-5.6317,-5.6319,-5.6448,-5.645,-5.6452,-5.6473,-5.6471,-5.647,-5.6469,-5.6599,-5.6605,-5.661,0,0,0,0,0,0,0,0,0,0,0,0,0,-5.6191,-5.6081,-5.6315,-5.6345,-5.6349,-5.6448,-5.645,-5.6452,-5.6473,-5.6471,-5.647,-5.6468,-5.6598,-5.6604,-5.6611,-5.6688,0,0,-5.6632,-5.6635,0,0,0,0,0,0,0,0,-5.6184,-5.6199,-5.6339,-5.6343,-5.6348,-5.6442,-5.6414,-5.6531,-5.6474,-5.6426,-5.6469,-5.6467,-5.6549,-5.656,-5.6589,-5.6694,-5.67,-5.6633,-5.6637,-5.664,-5.6642,0,0,0,0,0,0,0,-5.6176,-5.6194,-5.6368,-5.6341,-5.6346,-5.635,-5.6365,-5.6436,-5.6495,-5.643,-5.6432,-5.6447,-5.6551,-5.6582,-5.6592,-5.6702,-5.6633,-5.6639,-5.6643,-5.6646,-5.6877,-5.6879,0,0,0,0,0,0,-5.6163,-5.6187,-5.6364,-5.6372,-5.626,-5.6356,-5.6372,-5.6413,-5.6495,-5.6506,-5.6449,-5.6448,-5.6571,-5.6584,-5.6597,-5.6691,-5.664,-5.6646,-5.665,-5.6875,-5.6878,-5.688,0,0,0,0,0,0,-5.6158,-5.6179,-5.6358,-5.628,-5.6303,-5.6362,-5.6408,-5.6417,-5.6448,-5.6509,-5.6519,-5.6469,-5.657,-5.6587,-5.6666,-5.6696,-5.6649,-5.6656,-5.6873,-5.6876,-5.6879,-5.6881,0,0,0,0,0,0,-5.6151,-5.6177,-5.6207,-5.6281,-5.6307,-5.6426,-5.641,-5.6421,-5.646,-5.646,-5.6531,-5.6541,-5.657,-5.6655,-5.6672,-5.6704,-5.6661,-5.687,-5.6874,-5.6878,-5.6878,-5.6884,-5.6888,0,0,0,0,0,-5.6142,-5.6202,-5.6209,-5.623,-5.6347,-5.6428,-5.6443,-5.6476,-5.6463,-5.6493,-5.6533,-5.6539,-5.6691,-5.6663,-5.6683,-5.6717,-5.6868,-5.6873,-5.6877,-5.6876,-5.6883,-5.6888,0,0,0,0,0,0,-5.6129,-5.6212,-5.622,-5.6306,-5.636,-5.6431,-5.647,-5.6482,-5.6539,-5.6537,-5.6575,-5.659,-5.6667,-5.67,-5.6668,-5.6796,-5.6778,-5.6787,-5.6771,-5.6777,-5.6782,-5.6771,-5.6667,0,0,0,0,0,-5.6136,-5.6196,-5.6265,-5.6334,-5.636,-5.6411,-5.6447,-5.6469,-5.6525,-5.6547,-5.6593,-5.6646,-5.6706,-5.6744,-5.6802,-5.6885,-5.6899,-5.6918,-5.6923,-5.6927,-5.6933,-5.6978,-5.6986,-5.6895,-5.6895,-5.6895,0,0,-5.6151,-5.6204,-5.6239,-5.6332,-5.6376,-5.6436,-5.643,-5.6493,-5.6537,-5.6557,-5.6633,-5.6669,-5.6731,-5.6811,-5.6849,-5.6842,-5.6962,-5.6933,-5.6935,-5.6939,-5.6983,-5.6992,-5.6999,-5.6898,-5.6897,-5.6897,0,0,-5.6208,-5.6255,-5.6317,-5.6362,-5.6429,-5.6463,-5.6478,-5.6548,-5.6573,-5.6651,-5.6667,-5.672,-5.6822,-5.6865,-5.69,-5.6976,-5.6983,-5.6994,-5.7018,-5.7062,-5.7069,-5.7075,-5.71,-5.7109,-5.7001,-5.7001,-5.7001,0,-5.6217,-5.6309,-5.6346,-5.641,-5.6449,-5.6473,-5.6534,-5.6576,-5.6658,-5.6684,-5.6676,-5.6805,-5.6849,-5.6939,-5.6957,-5.6986,-5.7003,-5.6984,-5.7065,-5.7072,-5.7079,-5.7102,-5.7112,-5.7001,-5.7001,-5.7001,-5.7001,0,-5.6315,-5.6379,-5.6421,-5.6501,-5.6546,-5.6608,-5.6654,-5.6695,-5.6714,-5.6748,-5.6826,-5.688,-5.6949,-5.6973,-5.6991,-5.7066,-5.7059,-5.7058,-5.704,-5.7087,-5.711,-5.712,-5.7002,-5.7002,-5.7002,-5.7002,0,0,-5.6364,-5.6467,-5.6481,-5.6518,-5.6596,-5.6644,-5.6708,-5.6777,-5.681,-5.6867,-5.692,-5.7007,-5.7006,-5.7046,-5.7069,-5.7108,-5.7162,-5.7102,-5.7103,-5.7108,-5.7246,-5.7244,-5.7254,-5.7169,-5.7171,-5.7172,-5.724,0,-5.6428,-5.6542,-5.6579,-5.6673,-5.6731,-5.6755,-5.681,-5.6863,-5.6897,-5.695,-5.6988,-5.7048,-5.7043,-5.7068,-5.7107,-5.7147,-5.7189,-5.7143,-5.7215,-5.7217,-5.7196,-5.7267,-5.7265,-5.7326,-5.7249,-5.7251,-5.7252,0,-5.6517,-5.6577,-5.6678,-5.6748,-5.6773,-5.6822,-5.6888,-5.694,-5.7,-5.7022,-5.7068,-5.7089,-5.7154,-5.7136,-5.7225,-5.7193,-5.7225,-5.7249,-5.7253,-5.7258,-5.7235,-5.7271,-5.7347,-5.7355,-5.7267,-5.7266,-5.7265,0,-5.654,-5.6646,-5.6719,-5.675,-5.6835,-5.6868,-5.6904,-5.6963,-5.7003,-5.7061,-5.7086,-5.7151,-5.7185,-5.7235,-5.7272,-5.7255,-5.7357,-5.7342,-5.7375,-5.7374,-5.7393,-5.7391,-5.7472,-5.7419,-5.7419,-5.7419,-5.7418,0,-5.6605,-5.6665,-5.673,-5.6775,-5.6843,-5.6885,-5.695,-5.6988,-5.704,-5.7091,-5.7117,-5.7164,-5.7212,-5.7265,-5.7295,-5.7364,-5.738,-5.7398,-5.7404,-5.7394,-5.7391,-5.7413,-5.7409,-5.7421,-5.7421,-5.742,-5.742,0,-5.664,-5.6687,-5.6768,-5.6842,-5.6862,-5.6908,-5.6971,-5.7015,-5.7051,-5.7116,-5.7134,-5.719,-5.7255,-5.7298,-5.738,-5.74,-5.7474,-5.7481,-5.7453,-5.7456,-5.7486,-5.7481,-5.7581,-5.7596,-5.7535,-5.7536,-5.7537,0,-5.6677,-5.6724,-5.6804,-5.6841,-5.6878,-5.6938,-5.6978,-5.7022,-5.7063,-5.7136,-5.717,-5.7237,-5.7292,-5.7394,-5.7441,-5.7504,-5.7511,-5.7542,-5.7521,-5.7509,-5.7509,-5.7504,-5.7508,-5.7544,-5.7545,-5.7545,-5.7545,0,-5.6738,-5.6759,-5.6818,-5.6885,-5.6933,-5.6988,-5.7042,-5.7071,-5.7123,-5.7168,-5.7236,-5.7279,-5.7364,-5.7429,-5.7496,-5.7532,-5.7547,-5.7553,-5.7563,-5.7551,-5.7532,-5.7541,-5.7459,-5.7549,-5.7549,-5.7548,-5.7548,-5.7548,-5.6773,-5.6816,-5.6879,-5.6943,-5.6989,-5.704,-5.7085,-5.7127,-5.7184,-5.7257,-5.728,-5.7349,-5.7408,-5.7501,-5.7539,-5.7593,-5.7589,-5.7605,-5.7609,-5.7611,-5.761,-5.7527,-5.7606,-5.7606,-5.7605,-5.7605,-5.7605,0,-5.6833,-5.6875,-5.6934,-5.701,-5.7061,-5.7074,-5.7135,-5.7175,-5.7237,-5.7291,-5.7346,-5.7423,-5.7487,-5.754,-5.7605,-5.7638,-5.7646,-5.7654,-5.765,-5.7658,-5.761,-5.7593,-5.7646,-5.7646,-5.7646,-5.7646,-5.7646,-5.7646,-5.687,-5.6942,-5.697,-5.7065,-5.7107,-5.7176,-5.721,-5.7256,-5.73,-5.7385,-5.7439,-5.7474,-5.7528,-5.7598,-5.7656,-5.767,-5.7692,-5.7697,-5.7712,-5.7666,-5.7661,-5.7657,-5.7641,-5.7702,-5.7702,-5.7755,-5.7755,-5.7756]},{"header":{"parameterUnit":"m.s-1","parameterCategory":1,"la1":30.2991,"la2":30.254,"lo1":-89.0895,"lo2":-89.0444,"dy":0.0017,"dx":0.0017,"nx":28,"ny":28,"refTime":"2025-11-29T09:00:00:Z","depth":0,"parameterNumber":3,"parameterNumberName":"V-component_of_WINDS"},"data":[0,0,0,0,0,0,0,0,0,0,0,0,0,0,0,0,0,0,0,0,0,0,0,0,0,0,0,0,0,0,0,0,0,0,0,0,0,0,0,0,0,0,0,0,0,0,0,0,0,0,0,0,0,0,0,0,0,0,2.813,2.813,0,2.8146,2.8146,2.8146,2.812,2.8119,2.8118,2.8117,2.8133,2.8134,2.8135,0,0,0,0,0,0,0,0,0,0,0,0,0,2.8077,2.8078,2.813,2.813,2.813,2.8146,2.8146,2.8146,2.812,2.8119,2.8118,2.8117,2.8132,2.8134,2.8135,0,0,0,0,0,0,0,0,0,0,0,0,0,2.8097,2.8078,2.813,2.8119,2.8118,2.8146,2.8146,2.8146,2.812,2.8119,2.8118,2.8117,2.8132,2.8134,2.8135,2.8174,0,0,2.8141,2.8142,0,0,0,0,0,0,0,0,2.8096,2.8099,2.812,2.812,2.8119,2.813,2.8133,2.8155,2.8121,2.812,2.8117,2.8116,2.8133,2.8134,2.814,2.8174,2.8175,2.8141,2.8142,2.8143,2.8144,0,0,0,0,0,0,0,2.8095,2.8098,2.8136,2.8121,2.812,2.8114,2.8115,2.8137,2.8133,2.812,2.8118,2.812,2.8132,2.8139,2.814,2.8175,2.8141,2.8143,2.8144,2.8145,2.8244,2.8246,0,0,0,0,0,0,2.8095,2.8097,2.8135,2.8136,2.8104,2.8116,2.8117,2.8128,2.8133,2.8133,2.8121,2.8119,2.8136,2.8138,2.8141,2.8187,2.8143,2.8145,2.8146,2.8243,2.8244,2.8246,0,0,0,0,0,0,2.8093,2.8098,2.8135,2.8116,2.8121,2.8118,2.813,2.8129,2.8135,2.8134,2.8133,2.8129,2.8135,2.8138,2.8166,2.8187,2.8146,2.8147,2.8241,2.8243,2.8245,2.828,0,0,0,0,0,0,2.8092,2.8098,2.8112,2.8117,2.8122,2.816,2.8131,2.813,2.8138,2.8135,2.8141,2.8141,2.8134,2.8164,2.8168,2.8189,2.8149,2.8239,2.8242,2.8245,2.8277,2.8283,2.8288,0,0,0,0,0,2.809,2.812,2.8113,2.8118,2.8139,2.8161,2.8164,2.8156,2.814,2.8155,2.8155,2.814,2.8185,2.8167,2.8172,2.8194,2.8237,2.8241,2.8244,2.8274,2.8282,2.8288,0,0,0,0,0,0,2.8116,2.8121,2.8112,2.8145,2.8153,2.8157,2.8174,2.8164,2.8177,2.8173,2.8163,2.8165,2.8195,2.8197,2.8177,2.8232,2.8208,2.8213,2.8229,2.8237,2.8242,2.8241,2.815,0,0,0,0,0,2.8126,2.8144,2.8146,2.8175,2.818,2.8177,2.8186,2.818,2.8187,2.819,2.8192,2.82,2.8216,2.8227,2.8241,2.8277,2.8279,2.8295,2.8301,2.8306,2.8309,2.8331,2.8338,2.8257,2.8257,2.8257,0,0,2.8146,2.8151,2.8162,2.818,2.8186,2.8205,2.8179,2.82,2.8214,2.8193,2.822,2.8222,2.8231,2.8264,2.8278,2.8266,2.8333,2.831,2.8314,2.8315,2.8335,2.8343,2.8349,2.826,2.8259,2.8259,0,0,2.8192,2.8197,2.8222,2.8229,2.8238,2.8237,2.8243,2.8249,2.825,2.8277,2.8263,2.828,2.8307,2.8314,2.8321,2.8374,2.8361,2.8379,2.8408,2.8429,2.8436,2.8441,2.8461,2.8468,2.8383,2.8383,2.8383,0,2.8215,2.8243,2.8236,2.8258,2.8268,2.8252,2.8278,2.8284,2.8298,2.8305,2.8291,2.8327,2.8331,2.8367,2.838,2.8386,2.8393,2.8377,2.8435,2.8441,2.8446,2.8465,2.8472,2.8385,2.8384,2.8384,2.8384,0,2.8272,2.8292,2.8311,2.8326,2.8337,2.8361,2.8359,2.8371,2.8365,2.8365,2.8394,2.8399,2.8415,2.8424,2.8417,2.8459,2.8451,2.8437,2.8413,2.8456,2.8473,2.848,2.8388,2.8387,2.8386,2.8386,0,0,2.8332,2.8346,2.8353,2.8361,2.8371,2.8386,2.8411,2.8428,2.8439,2.845,2.847,2.8495,2.8483,2.8491,2.8485,2.8504,2.8546,2.8487,2.8487,2.8499,2.8594,2.8605,2.8613,2.8539,2.854,2.8541,2.8594,0,2.8379,2.8421,2.8417,2.8457,2.8476,2.8463,2.8484,2.8493,2.8495,2.8511,2.8513,2.8531,2.8513,2.8518,2.8536,2.8537,2.8566,2.8534,2.8558,2.8559,2.8556,2.8622,2.8633,2.8682,2.86,2.8602,2.8602,0,2.8438,2.8452,2.8495,2.8505,2.8513,2.8532,2.8549,2.8565,2.8576,2.8576,2.8587,2.8579,2.8604,2.858,2.8615,2.8594,2.8604,2.8606,2.8608,2.861,2.8583,2.8626,2.8698,2.8705,2.8613,2.8612,2.8611,0,2.8479,2.8509,2.8539,2.8546,2.8558,2.8572,2.8578,2.8588,2.8599,2.8614,2.8621,2.8638,2.8647,2.8661,2.8658,2.8641,2.8695,2.867,2.8695,2.8696,2.8707,2.8706,2.8781,2.8713,2.8713,2.8713,2.8713,0,2.8531,2.8557,2.8558,2.8576,2.8606,2.8602,2.8632,2.8636,2.8646,2.8665,2.8654,2.8673,2.8668,2.8686,2.8685,2.8715,2.8719,2.872,2.8719,2.8721,2.8721,2.8727,2.8723,2.8715,2.8714,2.8714,2.8714,0,2.8581,2.8582,2.8614,2.8625,2.8628,2.865,2.8659,2.8676,2.8678,2.8703,2.8709,2.8711,2.8732,2.8732,2.8755,2.8754,2.8791,2.8786,2.8788,2.8787,2.8813,2.8811,2.8894,2.8906,2.883,2.8831,2.8831,0,2.8614,2.8635,2.8648,2.8661,2.8668,2.8689,2.8701,2.8698,2.8712,2.8727,2.8744,2.8764,2.8781,2.8816,2.882,2.8838,2.8834,2.8862,2.8836,2.8839,2.8835,2.8834,2.8837,2.8867,2.8868,2.8869,2.8869,0,2.8673,2.8674,2.8692,2.8711,2.8727,2.8742,2.8755,2.8766,2.8765,2.8781,2.8803,2.8816,2.8842,2.8863,2.8882,2.8888,2.8879,2.8878,2.8884,2.8886,2.8887,2.8888,2.8802,2.8875,2.8875,2.8874,2.8874,2.8874,2.8716,2.8735,2.8748,2.877,2.878,2.8794,2.8812,2.8817,2.8836,2.8857,2.8855,2.888,2.8893,2.8917,2.8925,2.8945,2.8935,2.8945,2.8948,2.895,2.8954,2.8884,2.8949,2.8948,2.8948,2.8948,2.8948,0,2.8775,2.8784,2.8804,2.8825,2.8842,2.8834,2.8849,2.8864,2.8887,2.89,2.8917,2.8944,2.8965,2.8972,2.8993,2.9008,2.9004,2.9013,2.9012,2.9014,2.8961,2.8953,2.9016,2.9016,2.9016,2.9016,2.9016,2.9016,2.8808,2.884,2.8843,2.888,2.8888,2.8914,2.8924,2.8937,2.8948,2.8979,2.8997,2.9002,2.9012,2.9034,2.9054,2.9055,2.9063,2.9074,2.9074,2.9024,2.9017,2.9011,2.9004,2.9076,2.9076,2.9126,2.9126,2.9127]}]]